Location: ???????
(54.6339°N, 39.4245°E)
Time: 02:46:31
(UTC+00:00)

Cosmos 2292 Rocket - Pass Details

Date: 19 May 2025
Orbit: 368 x 1267 km, 83.0° (Epoch: 14 June)

Event Time Altitude Azimuth Distance (km) Brightness Sun altitude
Exits shadow 23:05:25 13° 179° (S) 2,336 6.0 -12.0°
Maximum altitude 23:10:32 69° 98° (E) 782 4.1 -11.7°
Drops below altitude 10° 23:14:54 10° 16° (NNE) 1,978 7.6 -11.4°
Sets 23:16:51 0° 13° (NNE) 2,768 8.6 -11.2°
